Location: Devore Heights
(34.2372°N, 117.4156°W)
Time: 23:23:44
(UTC+00:00)

Tiros 1 - All Passes

Search period start: 11 September 2024 00:00
Search period end: 21 September 2024 00:00
Orbit: 623 x 655 km, 48.4° (Epoch: 11 September)

Date Brightness Start Highest point End Pass type
(mag) Time Alt. Az. Time Alt. Az. Time Alt. Az.
11 Sep - 00:21:18 10° SW 00:25:52 89° NW 00:30:30 10° NE daylight
11 Sep - 02:04:45 10° WNW 02:08:22 22° NNW 02:12:01 10° NNE daylight
11 Sep - 03:49:22 10° NNW 03:51:46 14° N 03:54:09 10° NNE visible
11 Sep - 05:31:31 10° NNW 05:35:10 22° NNE 05:38:49 10° ENE visible
11 Sep - 07:13:00 10° NW 07:17:42 83° NE 07:22:26 10° SE night (unlit)
11 Sep - 08:56:37 10° W 08:59:15 15° SW 09:01:53 10° SSW night (unlit)
11 Sep - 23:03:32 10° SSW 23:07:34 32° SE 23:11:39 10° ENE daylight
12 Sep - 00:45:08 10° WSW 00:49:29 42° NNW 00:53:53 10° NE daylight
12 Sep - 02:29:35 10° NW 02:32:27 16° NNW 02:35:20 10° NNE visible
12 Sep - 04:13:15 10° NNW 04:15:59 15° N 04:18:42 10° NE visible
12 Sep - 05:54:45 10° NW 05:59:04 36° NNE 06:03:23 10° E visible
12 Sep - 07:36:42 10° WNW 07:41:08 42° SW 07:45:35 10° SSE night (unlit)
12 Sep - 21:48:52 10° SE 21:49:33 10° SE 21:50:13 10° ESE daylight
12 Sep - 23:26:22 10° SW 23:30:55 77° SE 23:35:31 10° NE daylight
13 Sep - 01:09:33 10° WNW 01:13:18 24° NNW 01:17:06 10° NNE daylight
13 Sep - 02:54:14 10° NNW 02:56:38 14° N 02:59:02 10° NNE visible
13 Sep - 04:36:37 10° NNW 04:40:05 20° NNE 04:43:33 10° ENE visible
13 Sep - 06:18:03 10° NW 06:22:43 71° NE 06:27:25 10° ESE visible
13 Sep - 08:01:11 10° W 08:04:21 18° SW 08:07:32 10° S night (unlit)
13 Sep - 22:08:51 10° S 22:12:39 26° SE 22:16:29 10° ENE daylight
13 Sep - 23:50:02 10° WSW 23:54:28 49° NNW 23:58:56 10° NE daylight
14 Sep - 01:34:19 10° NW 01:37:19 17° NNW 01:40:21 10° NNE daylight
14 Sep - 03:18:16 10° NNW 03:20:50 15° N 03:23:25 10° NE visible
14 Sep - 04:59:50 10° NW 05:03:59 31° NNE 05:08:11 10° E visible
14 Sep - 06:41:38 10° WNW 06:46:10 51° SW 06:50:44 10° SSE night (unlit)
14 Sep - 22:31:26 10° SW 22:35:56 64° SE 22:40:29 10° ENE daylight
15 Sep - 00:14:19 10° W 00:18:14 27° NNW 00:22:10 10° NE daylight
15 Sep - 01:59:03 10° NW 02:01:29 14° N 02:03:55 10° NNE daylight
15 Sep - 03:41:41 10° NNW 03:44:57 19° NNE 03:48:14 10° ENE visible
15 Sep - 05:23:05 10° NW 05:27:42 60° NE 05:32:20 10° ESE visible
15 Sep - 07:05:51 10° W 07:09:24 22° SW 07:12:59 10° S night (unlit)
15 Sep - 21:14:13 10° S 21:17:43 22° SE 21:21:14 10° E daylight
15 Sep - 22:54:56 10° WSW 22:59:25 57° NW 23:03:57 10° NE daylight
16 Sep - 00:39:01 10° WNW 00:42:11 18° NNW 00:45:22 10° NNE daylight
16 Sep - 02:23:13 10° NNW 02:25:40 14° N 02:28:08 10° NE visible
16 Sep - 04:04:53 10° NW 04:08:54 28° NNE 04:12:55 10° E visible
16 Sep - 05:46:34 10° WNW 05:51:10 62° SW 05:55:47 10° SE visible
16 Sep - 21:36:31 10° SSW 21:40:57 53° SE 21:45:25 10° ENE daylight
16 Sep - 23:19:05 10° W 23:23:07 30° NNW 23:27:11 10° NE daylight
17 Sep - 01:03:48 10° NW 01:06:18 14° N 01:08:48 10° NNE daylight
17 Sep - 02:46:42 10° NNW 02:49:48 17° NNE 02:52:53 10° ENE visible
17 Sep - 04:28:06 10° NW 04:32:37 51° NNE 04:37:11 10° ESE visible
17 Sep - 06:10:34 10° WNW 06:14:26 26° SW 06:18:19 10° S night (unlit)
17 Sep - 20:19:39 10° S 20:22:45 18° SE 20:25:51 10° E daylight
17 Sep - 21:59:49 10° WSW 22:04:22 68° NW 22:08:56 10° NE daylight
17 Sep - 23:43:42 10° WNW 23:47:01 19° NNW 23:50:21 10° NNE daylight
18 Sep - 01:28:06 10° NNW 01:30:28 14° N 01:32:50 10° NE daylight
18 Sep - 03:09:55 10° NNW 03:13:45 25° NNE 03:17:38 10° E visible
18 Sep - 04:51:29 10° NW 04:56:07 74° SW 05:00:47 10° SE visible
18 Sep - 06:36:57 10° WSW 06:37:31 10° SW 06:38:05 10° SW night (unlit)
18 Sep - 20:41:36 10° SSW 20:45:55 43° SE 20:50:16 10° ENE daylight
18 Sep - 22:23:49 10° W 22:28:00 34° NNW 22:32:10 10° NE daylight
19 Sep - 00:08:29 10° NW 00:11:05 15° N 00:13:41 10° NNE daylight
19 Sep - 01:51:41 10° NNW 01:54:35 16° NNE 01:57:30 10° NE daylight
19 Sep - 03:33:05 10° NW 03:37:31 44° NNE 03:41:58 10° ESE visible
19 Sep - 05:15:19 10° WNW 05:19:25 31° SW 05:23:32 10° SSE visible
19 Sep - 19:25:12 10° SSE 19:27:45 15° SE 19:30:19 10° E daylight
19 Sep - 21:04:42 10° SW 21:09:17 80° NW 21:13:52 10° NE daylight
19 Sep - 22:48:20 10° WNW 22:51:49 21° NNW 22:55:19 10° NNE daylight
20 Sep - 00:32:54 10° NNW 00:35:14 14° N 00:37:32 10° NNE daylight
20 Sep - 02:14:54 10° NNW 02:18:35 23° NNE 02:22:16 10° ENE visible
20 Sep - 03:56:24 10° NW 04:01:02 88° SW 04:05:42 10° SE visible
20 Sep - 05:40:27 10° WSW 05:42:31 13° SW 05:44:35 10° SSW visible
20 Sep - 19:46:42 10° SSW 19:50:52 36° SE 19:55:04 10° ENE daylight
20 Sep - 21:28:33 10° W 21:32:50 39° NNW 21:37:08 10° NE daylight
20 Sep - 23:13:07 10° NW 23:15:50 15° N 23:18:35 10° NNE daylight
